POLYITAN-1

Last updated on Thu Nov 21 2024 00:03:39 GMT+0000 (Coordinated Universal Time)

1 40042U 14033AJ 24325.35124222 .00020039 00000+0 12519-2 0 9991 2 40042 98.0885 296.9055 0010860 341.1389 18.9435 15.09458119566336
UTC large
Height (km)
Speed (km/s)
/
Latitude / Longitude
Inclination (degrees)
Orbital Period (minutes)
Azimuth
Elevation
Range (km)
Doppler Factor

Next 0 passes for location: London (51.5072 / 0.1276)

Sorry there are no passes over London.